HYLAS 4 (43272 NORAD) Tracking and Keplerian Element Data

This shows tracking and keplerian element data for the satellite.

Feedback or suggestion? Click here.




ElementValue
Catalog43272
NameHYLAS 4
Epoch Orbit2118
Epoch Day13.07746118
Epoch Year2024
RAAN264.1287
Inclination0.0733
Eccentricity0.0001363
Argument of Perigee49.4605
Mean Anonmoly152.8409
Mean Motion1.00270293
Decay Rate-2.25E-06
L11 43272U 18033B 24013.07746118 -.00000225 00000+0 00000+0 0 9995
L22 43272 0.0733 264.1287 0001363 49.4605 152.8409 1.00270293 21189



Live tracking and technical data element details for HYLAS 4 (NORAD 43272). HYLAS 4 can be tracked NOW for your location showing map with azimuth and elevation plus other details from your city location.







IsCatalogInMostPopularTable: catalog: 43272, numindb: 897
Update: records affected: 1



GetName: 43272 HYLAS 4

Hit Count: updated at: Sat, 20 Apr 2024 23:43:36 GMT